Temperature
10 10 11 11 11 11 11 11 11 12 13 14 14 15 15 15 15 15 16 16 16 16 16 16 16 16 16 16 16 16 16 16 16 17 16 16 16 16
9 10 10 10 11 11 11 11 11 11 12 13 14 14 15 15 15 15 15 15 15 15 16 16 16 16 16 16 16 16 16 16 16 16 16 16 16 16
9 9 9 10 10 10 10 11 11 11 11 13 13 14 14 14 15 15 15 15 15 15 15 16 16 16 16 16 16 16 16 16 16 16 16 16 16 16
8 8 9 9 9 10 10 10 11 11 11 12 13 13 14 14 14 14 15 15 15 15 15 15 15 16 16 16 16 16 16 16 16 16 16 16 16 16
8 8 8 8 9 9 9 10 10 10 11 11 12 13 13 13 14 14 14 15 15 15 15 15 15 15 15 15 15 15 16 16 16 16 16 16 16 16
8 8 8 8 8 8 9 9 10 10 10 11 11 12 12 13 13 13 14 14 14 15 15 15 15 15 15 15 15 15 16 16 16 16 16 16 16 15
8 8 8 8 8 8 8 9 9 9 10 10 11 11 12 12 13 13 13 13 13 14 14 14 15 15 15 15 15 15 15 15 16 15 16 16 15 15
8 8 8 7 7 7 8 8 8 9 9 10 10 11 11 12 12 12 13 13 12 13 13 13 14 14 14 15 15 15 15 15 15 15 15 15 15 15
8 8 8 8 7 7 7 8 8 8 9 9 10 10 11 11 12 12 12 12 13 13 12 12 12 12 13 14 14 14 15 15 15 15 15 15 15 14
7 7 7 7 7 7 7 7 7 8 8 9 9 10 10 11 11 11 12 12 12 12 12 12 12 12 12 12 13 13 14 14 14 14 14 14 14 14
7 7 7 7 7 7 6 6 7 8 8 8 9 9 10 10 10 11 11 11 11 11 11 12 11 11 11 11 12 12 12 13 13 13 13 13 13 13
7 7 7 7 7 6 6 6 6 7 8 8 8 9 9 10 10 10 11 11 11 11 11 11 11 11 11 11 11 11 12 12 12 12 12 12 12 12
6 7 7 6 6 6 6 6 6 7 7 7 8 9 9 9 10 10 10 11 11 11 12 11 11 11 11 11 11 11 11 11 11 11 11 11 11 11
6 6 6 6 6 6 6 6 6 6 6 7 7 8 9 9 10 10 10 10 11 11 12 12 11 11 12 11 11 11 11 11 11 11 11 11 11 11
6 6 6 6 6 6 6 6 6 6 6 6 7 8 9 9 9 10 10 10 10 10 11 11 11 12 12 12 12 11 11 11 11 11 11 11 11 11
6 6 6 6 6 6 6 6 6 6 6 6 7 8 8 9 9 9 10 10 10 10 10 10 11 11 11 12 12 12 11 11 11 11 10 11 11 11
6 6 6 6 6 5 5 6 6 6 6 6 7 7 8 8 9 9 9 9 10 10 10 10 10 10 11 11 11 12 11 11 11 11 11 11 11 11
6 6 6 6 6 6 5 6 6 6 6 6 7 7 8 8 9 9 9 9 9 10 10 10 10 10 10 10 11 11 11 11 11 11 11 11 11 11
6 6 6 6 6 6 6 6 6 6 6 6 7 7 7 8 8 8 9 9 9 9 10 10 10 10 10 10 11 11 11 11 11 11 11 11 11 11
6 6 6 6 6 6 6 6 6 6 6 7 7 7 7 8 8 8 8 9 9 9 9 9 10 10 10 11 11 11 11 11 11 11 11 11 10 10
6 6 7 7 6 6 6 6 6 6 7 7 7 7 7 8 8 8 8 9 9 9 9 9 10 10 10 10 10 11 11 11 11 11 11 11 10 10
7 7 7 7 7 7 7 7 7 7 7 7 7 7 7 8 8 8 8 8 9 9 9 9 9 9 9 10 10 11 11 11 10 10 10 11 11 11
7 7 7 7 7 7 7 7 7 7 7 7 7 7 7 8 8 8 8 8 9 9 9 9 9 9 9 9 10 10 10 10 10 10 10 9 10 10
Wind_Speed
5 5 4 4 4 4 4 4 4 4 3 3 2 1 2 4 8 11 12 17 21 22 22 23 25 26 26 27 27 26 25 25 26 25 25 25 25 24
4 5 5 4 4 4 4 4 4 4 4 2 2 3 2 1 3 7 10 14 18 20 21 21 22 23 24 24 24 23 23 23 23 23 23 23 23 22
6 6 6 5 4 4 4 4 4 4 6 4 2 3 2 0 1 2 4 5 8 14 17 18 19 20 21 21 21 21 21 21 20 20 20 20 20 19
8 7 8 6 5 4 4 5 5 5 5 6 3 2 1 1 2 2 3 4 5 9 13 14 16 17 18 19 19 19 19 19 19 18 18 18 18 17
9 9 9 7 7 5 5 5 5 5 5 5 4 2 1 1 2 3 4 4 5 7 9 10 12 14 15 16 17 17 17 18 18 18 17 17 16 16
9 9 9 9 9 8 6 7 6 6 5 5 4 3 2 1 3 4 3 3 4 4 6 7 9 10 11 13 14 15 16 16 16 16 16 15 15 15
9 9 10 11 12 9 7 7 6 5 5 5 5 3 3 3 4 4 4 4 3 3 5 4 6 6 6 9 11 14 15 15 15 15 15 15 15 15
11 10 10 12 13 14 14 12 10 8 8 6 5 5 5 4 4 5 6 5 4 4 4 3 3 5 4 5 10 14 15 15 16 16 16 16 16 15
12 11 10 10 11 10 12 13 13 14 13 9 8 7 6 5 5 7 7 6 4 6 5 3 3 3 3 6 11 14 15 16 17 17 17 17 17 16
12 12 12 12 11 11 11 11 11 11 12 11 10 9 8 6 6 6 6 6 5 5 4 4 3 3 3 6 8 12 15 17 18 19 19 19 19 18
12 12 12 13 14 14 12 12 12 11 11 13 12 11 10 9 7 6 8 8 5 4 2 4 4 3 3 3 7 11 14 16 18 19 20 21 21 19
10 10 14 14 14 14 13 12 13 11 10 9 10 11 10 9 11 10 9 9 6 4 4 5 5 4 3 2 3 6 10 13 16 18 21 22 21 14
8 8 9 12 15 15 14 12 13 11 10 10 9 8 7 7 8 9 9 9 8 4 8 6 6 4 5 4 2 3 4 6 8 11 15 17 15 13
9 8 9 12 14 14 12 12 14 12 9 8 8 8 8 8 8 8 10 9 6 6 11 9 6 7 6 5 4 3 3 5 6 7 10 12 12 11
8 11 12 12 11 10 12 14 13 10 10 10 10 10 9 9 7 7 8 8 7 8 12 7 8 9 7 6 7 5 4 3 5 7 7 7 7 7
6 7 9 9 7 7 7 8 9 9 10 10 10 9 8 8 8 7 7 8 6 5 7 8 9 11 6 6 8 7 6 7 7 7 7 5 6 7
4 3 3 3 3 4 5 6 7 8 9 9 9 8 8 8 8 7 7 7 7 8 7 5 5 5 5 7 7 10 10 7 9 9 7 6 5 6
4 4 5 4 5 5 5 6 7 8 9 9 9 9 9 9 9 8 8 8 9 9 8 7 8 5 4 3 3 10 9 8 10 10 8 7 6 6
5 6 6 5 5 5 5 6 7 7 8 8 8 8 8 9 9 9 9 9 9 10 10 10 10 9 9 7 5 7 9 10 11 10 8 6 7 7
6 7 7 6 5 5 5 6 6 6 7 7 8 8 7 8 9 9 10 10 10 10 10 11 11 11 10 9 7 7 13 13 11 12 9 5 5 7
7 7 7 7 6 6 6 6 6 6 7 7 7 7 7 7 8 9 10 12 11 10 12 12 10 10 7 8 7 5 8 13 12 10 11 9 6 7
8 8 8 7 7 6 6 6 6 6 7 7 7 7 7 7 8 9 9 10 10 10 10 9 12 10 7 8 8 9 10 10 9 13 15 8 7 10
8 8 8 7 7 7 7 7 8 7 7 8 8 8 8 8 8 8 8 9 9 10 11 11 10 9 7 7 8 8 13 13 10 9 8 3 4 8
Wind_Direction
281 279 271 269 271 263 261 261 267 281 285 287 302 303 258 229 218 211 212 212 209 207 206 205 204 202 201 201 203 206 208 211 212 213 216 218 220 222
274 278 276 271 273 269 261 259 252 256 270 287 297 311 309 281 210 207 207 204 201 198 197 197 197 196 196 198 200 203 206 207 209 210 212 215 217 219
275 274 277 276 271 268 263 256 253 251 265 283 276 300 308 7 101 148 158 168 183 188 188 188 188 189 191 193 196 198 201 203 205 206 208 211 213 218
267 267 271 276 270 264 258 256 253 246 253 275 284 294 314 161 134 125 110 116 131 161 170 173 177 181 184 188 190 193 196 198 200 202 205 207 210 214
258 257 261 264 267 262 254 255 255 253 243 258 276 280 282 155 132 118 110 106 105 125 138 153 165 171 177 182 186 189 191 194 196 199 200 201 202 204
255 250 251 250 254 257 254 250 250 251 247 250 259 259 253 185 153 153 145 130 118 108 106 117 137 149 162 172 179 183 186 188 190 192 192 191 191 190
261 250 246 247 248 245 243 241 237 240 239 241 245 243 237 199 186 164 161 143 116 127 126 118 120 122 136 154 165 170 173 175 177 178 177 175 173 171
268 261 252 255 256 254 252 245 231 230 231 231 235 232 232 220 193 170 159 161 162 157 135 112 107 109 103 125 147 156 160 162 163 163 161 159 158 157
264 263 262 255 245 243 248 255 247 236 228 226 233 232 224 218 200 185 179 174 159 154 137 115 98 97 70 97 135 147 152 153 153 152 151 150 149 148
260 258 257 257 250 240 243 247 247 244 237 233 235 236 229 218 209 200 174 145 116 137 133 125 112 92 73 70 110 136 143 145 145 144 143 141 140 139
263 259 255 255 247 235 238 243 246 247 243 234 229 232 225 214 197 182 171 166 158 155 124 126 128 103 76 62 70 108 128 136 139 140 139 137 133 126
266 261 255 252 247 235 234 235 240 241 237 234 228 229 227 218 202 199 188 182 161 157 159 134 140 138 115 73 59 83 99 112 125 134 137 137 134 124
265 265 259 250 247 240 232 232 233 229 228 226 225 221 215 211 207 202 197 191 177 164 164 147 147 144 131 128 95 71 102 119 111 115 126 134 138 138
259 262 261 255 251 246 235 228 224 220 225 221 220 218 213 209 208 201 199 196 180 162 165 157 148 154 140 139 139 118 94 112 123 127 126 121 113 115
255 257 260 261 258 251 237 225 217 216 215 216 218 218 211 206 197 193 194 182 160 156 162 165 151 153 149 146 147 147 140 138 137 137 140 145 144 143
265 268 265 261 250 242 237 224 216 212 211 215 215 213 204 199 196 188 188 179 167 154 153 156 159 156 147 146 152 159 158 156 157 150 142 143 150 158
275 266 255 250 245 238 230 221 210 208 214 216 213 208 202 197 193 188 183 178 178 171 158 137 119 108 117 147 154 159 155 150 158 154 151 153 164 171
250 252 259 252 247 245 238 225 214 210 211 210 206 203 200 195 189 188 187 188 182 177 166 155 144 122 102 55 124 158 159 154 156 158 155 157 168 177
238 250 254 253 249 245 234 225 219 214 206 202 199 198 199 194 187 187 191 192 186 178 170 165 167 164 170 176 173 169 162 155 156 162 169 165 171 172
235 246 252 250 244 242 234 226 219 209 200 197 198 198 195 193 190 188 191 191 185 176 172 174 181 183 188 176 160 172 170 160 162 166 165 148 120 128
241 242 246 246 243 239 232 219 210 204 198 191 196 196 194 196 195 193 190 186 183 179 181 184 181 154 118 118 124 142 169 171 163 162 159 153 149 157
246 243 243 241 238 236 230 217 209 207 203 198 198 198 200 201 197 192 187 182 184 182 178 164 154 154 155 163 160 153 155 161 157 160 164 154 165 177
242 239 239 237 233 229 225 217 211 209 208 204 200 198 198 200 197 191 185 179 175 172 163 157 160 167 169 158 151 151 155 158 158 161 171 170 143 150
Height
1479 1479 1479 1478 1478 1478 1477 1476 1476 1474 1472 1472 1473 1473 1474 1476 1478 1481 1484 1488 1492 1497 1502 1507 1513 1518 1523 1528 1532 1537 1541 1545 1550 1554 1558 1561 1565 1568
1473 1473 1473 1473 1473 1473 1473 1473 1472 1472 1470 1469 1470 1471 1471 1472 1474 1477 1480 1484 1488 1493 1497 1502 1507 1512 1517 1522 1526 1531 1535 1539 1544 1548 1552 1556 1559 1562
1468 1468 1467 1468 1468 1468 1469 1469 1468 1468 1467 1466 1467 1467 1468 1469 1471 1473 1476 1480 1484 1488 1493 1498 1503 1508 1512 1517 1521 1525 1529 1534 1538 1542 1546 1550 1554 1557
1463 1462 1462 1462 1462 1463 1463 1464 1464 1464 1464 1463 1463 1465 1465 1466 1468 1470 1473 1476 1480 1484 1489 1493 1498 1503 1507 1512 1516 1520 1524 1529 1533 1537 1541 1545 1549 1552
1457 1456 1456 1456 1456 1457 1457 1458 1459 1460 1460 1460 1460 1461 1463 1464 1466 1468 1470 1473 1477 1480 1485 1489 1494 1498 1503 1507 1511 1515 1520 1524 1528 1533 1537 1540 1544 1547
1451 1450 1450 1450 1450 1451 1451 1452 1454 1455 1456 1456 1457 1458 1459 1461 1463 1465 1467 1470 1474 1477 1481 1485 1489 1494 1498 1502 1507 1511 1515 1520 1524 1528 1532 1536 1539 1543
1444 1444 1444 1444 1444 1445 1446 1447 1448 1449 1450 1452 1453 1454 1455 1457 1460 1462 1465 1467 1471 1474 1478 1481 1485 1489 1493 1497 1502 1506 1511 1515 1519 1524 1528 1532 1535 1538
1437 1437 1437 1437 1437 1438 1439 1440 1442 1443 1445 1447 1448 1450 1451 1454 1456 1458 1461 1464 1468 1472 1475 1478 1481 1485 1489 1493 1497 1502 1506 1511 1515 1520 1524 1527 1531 1534
1431 1430 1430 1430 1430 1431 1432 1434 1435 1437 1439 1441 1443 1445 1447 1450 1452 1454 1457 1461 1464 1467 1472 1475 1479 1482 1486 1490 1494 1498 1503 1507 1511 1516 1519 1523 1527 1530
1424 1423 1423 1423 1423 1424 1424 1426 1427 1429 1432 1435 1437 1440 1443 1445 1448 1450 1453 1457 1461 1465 1469 1473 1476 1480 1483 1487 1491 1495 1499 1504 1508 1512 1516 1520 1524 1527
1417 1416 1415 1415 1415 1416 1417 1417 1419 1422 1425 1428 1431 1434 1437 1440 1442 1446 1449 1452 1456 1461 1465 1469 1473 1477 1481 1485 1489 1493 1497 1501 1505 1509 1513 1517 1521 1524
1410 1409 1408 1407 1407 1408 1409 1409 1411 1414 1418 1421 1424 1428 1431 1434 1437 1440 1443 1447 1451 1456 1460 1466 1470 1474 1479 1483 1486 1490 1494 1498 1503 1507 1510 1514 1518 1521
1403 1401 1401 1400 1400 1400 1401 1402 1403 1407 1411 1414 1417 1421 1424 1428 1431 1434 1438 1442 1446 1451 1456 1461 1466 1470 1474 1478 1483 1487 1492 1496 1500 1504 1508 1512 1516 1520
1397 1395 1394 1393 1393 1393 1393 1394 1397 1401 1403 1406 1409 1413 1417 1420 1425 1429 1433 1437 1441 1446 1451 1457 1461 1466 1470 1474 1479 1484 1489 1493 1498 1502 1506 1509 1513 1517
1391 1390 1389 1388 1387 1386 1387 1388 1391 1393 1396 1399 1402 1406 1410 1415 1420 1424 1429 1432 1436 1440 1446 1452 1457 1462 1468 1471 1475 1480 1485 1490 1495 1499 1503 1508 1511 1515
1387 1385 1384 1383 1382 1381 1382 1383 1384 1387 1390 1393 1397 1401 1406 1410 1414 1418 1423 1427 1430 1435 1440 1447 1453 1459 1464 1468 1473 1477 1482 1486 1491 1496 1500 1505 1509 1513
1382 1381 1380 1379 1378 1378 1378 1379 1380 1382 1385 1388 1392 1396 1400 1404 1408 1412 1417 1421 1425 1429 1435 1441 1447 1453 1460 1465 1469 1474 1478 1483 1487 1492 1497 1501 1506 1510
1379 1377 1377 1376 1375 1375 1375 1375 1376 1378 1380 1384 1387 1391 1395 1398 1402 1406 1411 1416 1420 1424 1429 1435 1441 1447 1454 1459 1465 1469 1474 1479 1484 1489 1494 1498 1503 1507
1375 1374 1373 1372 1372 1372 1372 1372 1372 1374 1377 1380 1383 1386 1390 1394 1397 1401 1406 1410 1415 1419 1424 1429 1435 1441 1447 1452 1458 1464 1469 1474 1479 1484 1490 1495 1500 1505
1370 1370 1369 1369 1369 1369 1369 1369 1370 1371 1373 1376 1379 1382 1385 1389 1393 1397 1401 1405 1410 1414 1419 1424 1430 1435 1441 1447 1453 1459 1465 1470 1475 1480 1486 1491 1497 1502
1366 1365 1365 1365 1365 1365 1366 1366 1367 1369 1371 1373 1376 1378 1382 1385 1389 1392 1396 1400 1405 1409 1414 1419 1424 1432 1438 1444 1449 1454 1460 1466 1471 1477 1482 1486 1492 1496
1361 1361 1361 1361 1361 1361 1362 1363 1364 1366 1368 1370 1373 1376 1379 1382 1385 1389 1392 1396 1400 1405 1410 1415 1421 1426 1432 1438 1443 1449 1454 1460 1466 1472 1480 1484 1487 1491
1356 1356 1356 1356 1356 1357 1358 1359 1361 1362 1364 1367 1369 1372 1375 1379 1382 1386 1389 1392 1396 1400 1405 1410 1416 1422 1428 1434 1439 1444 1450 1455 1461 1467 1473 1479 1485 1491